Home > Weather > South Bend > Past weeks

Flag for U.S.A. Weather for the Past 2 Weeks in South Bend, Indiana, U.S.A.

Now
26 °F

Light snow. Ice fog.


Feels Like: 16 °F
Forecast: 22 / 29 °F
Wind: 10 mph from West

Location: Michiana Regional Airport

Current Time: Feb 8, 2016 at 11:10:49 PM

Latest Report: Feb 8, 2016 at 9:54 PM


Visibility: 2 mi

Pressure: 29.72 "Hg

Humidity: 92%

Dew point: 24 °F

Location of South BendLocation

Historic Weather in South Bend — Graph

°F

South Bend Temperature Yesterday

Maximum temperature yesterday: 45 °F (at 1:54 PM)
Minimum temperature yesterday: 30 °F (at 11:54 PM)
Average temperature yesterday: 37 °F

High & Low Weather Summary for the Past Weeks

 TemperatureHumidityPressure
High52 °F (Jan 31, 2:54 PM)100% (Jan 25, 6:54 PM)30.39 "Hg (Jan 25, 6:54 PM)
Low19 °F (Feb 6, 4:54 AM)53% (Feb 7, 1:54 PM)29.47 "Hg (Feb 2, 11:54 PM)
Average33 °F80%29.93 "Hg
* Reported Jan 24 8:54 PM — Feb 8 8:54 PM, South Bend, Weather by CustomWeather, © 2016

Note: Actual official high and low records may vary slightly from our data, if they occured in-between our weather recording intervals... More about our weather records

Advertising

South Bend Weather History for the Previous 24 Hours

 ConditionsComfort  
Time TempWeatherWind HumidityBarometerVisibility
8:54 PM
Mon, Feb 8
27 °FLight snow. Ice fog.10 mph92%29.73 "Hg1 mi
7:54 PM28 °FLight snow. Ice fog.9 mph93%29.74 "Hg2 mi
6:54 PM28 °FLight snow. Ice fog.10 mph89%29.73 "Hg2 mi
5:54 PM29 °FLight snow. Ice fog.9 mph85%29.72 "Hg4 mi
4:54 PM29 °FOvercast.14 mph85%29.70 "Hg10 mi
3:54 PM30 °FLight snow. Overcast.12 mph85%29.69 "Hg8 mi
2:54 PM30 °FOvercast.13 mph85%29.67 "Hg8 mi
1:54 PM31 °FLight snow. Ice fog.10 mph89%29.65 "Hg5 mi
12:54 PM31 °FMostly cloudy.9 mph89%29.66 "Hg10 mi
11:54 AM32 °FLow clouds.7 mph88%29.67 "Hg7 mi
10:54 AM32 °FOvercast.8 mph85%29.67 "Hg10 mi
9:54 AM31 °FMostly cloudy.7 mph89%29.66 "Hg10 mi
8:54 AM29 °FMostly cloudy.9 mph89%29.65 "Hg10 mi
7:54 AM25 °FOvercast.5 mph92%29.66 "Hg10 mi
6:54 AM24 °FClear.No wind91%29.65 "Hg10 mi
5:54 AM25 °FClear.No wind88%29.65 "Hg10 mi
4:54 AM26 °FClear.5 mph92%29.66 "Hg10 mi
3:54 AM27 °FClear.No wind85%29.67 "Hg10 mi
2:54 AM27 °FClear.5 mph92%29.69 "Hg10 mi
1:54 AM26 °FClear.6 mph88%29.70 "Hg10 mi
12:54 AM29 °FClear.3 mph93%29.72 "Hg10 mi
11:54 PM
Sun, Feb 7
30 °FClear.5 mph89%29.73 "Hg10 mi
Weather by CustomWeather, © 2016

See weather overviewHow to use our weather pages